Printer-friendly version

IAU Minor Planet Center

Minor Planet Center

MPEC 2008-M27 : COMET C/2008 J1 (BOATTINI)

The following Minor Planet Electronic Circular may be linked-to from your own Web pages, but must not otherwise be redistributed electronically.


Read MPEC 2008-M26 Read MPEC 2008-M28


M.P.E.C. 2008-M27                                Issued 2008 June 25, 15:49 UT

     The Minor Planet Electronic Circulars contain information on unusual
         minor planets and routine data on comets.  They are published
   on behalf of Commission 20 of the International Astronomical Union by the
          Minor Planet Center, Smithsonian Astrophysical Observatory,
                          Cambridge, MA 02138, U.S.A.

             Prepared using the Tamkin Foundation Computer Network

                              MPC@CFA.HARVARD.EDU
          URL http://www.cfa.harvard.edu/iau/mpc.html  ISSN 1523-6714

                          COMET C/2008 J1 (BOATTINI)

Observations:
    CK08J010  C2008 06 12.65777 21 45 20.34 +45 53 06.8                 EM027D81
    CK08J010  C2008 06 12.65964 21 45 20.43 +45 53 13.3                 EM027D81
    CK08J010  C2008 06 12.66155 21 45 20.52 +45 53 19.7                 EM027D81
    CK08J010  C2008 06 12.66340 21 45 20.63 +45 53 26.1          11.7 T EM027D81
    CK08J010  C2008 06 15.98595 21 48 11.89 +48 57 05.0          14.8 N EM027J70
    CK08J010  C2008 06 15.98940 21 48 12.10 +48 57 16.5          14.3 N EM027J70
    CK08J010  C2008 06 15.99006 21 48 12.19 +48 57 19.1          14.3 N EM027J70
    CK08J010  C2008 06 15.99073 21 48 12.18 +48 57 21.4          14.8 N EM027J70
    CK08J010  C2008 06 15.99139 21 48 12.18 +48 57 22.9          15.0 N EM027J70
    CK08J010  C2008 06 15.99206 21 48 12.22 +48 57 25.4          14.7 N EM027J70
    CK08J010  C2008 06 15.99273 21 48 12.25 +48 57 27.7          14.4 N EM027J70
    CK08J010  C2008 06 16.10227 21 48 17.74 +49 03 31.3          14.2 N EM027J24
    CK08J010  C2008 06 16.10979 21 48 18.04 +49 03 55.4          14.2 N EM027J24
    CK08J010  C2008 06 16.12110 21 48 18.62 +49 04 33.0          14.2 N EM027J24
    CK08J010  C2008 06 16.67000 21 48 46.04 +49 34 35.2                 EM027349
    CK08J010  C2008 06 16.67345 21 48 46.19 +49 34 46.6                 EM027349
    CK08J010  C2008 06 16.67692 21 48 46.35 +49 34 57.9          12.3 T EM027349
    CK08J010  C2008 06 16.72968 21 48 48.87 +49 37 51.9          15.2 N EM027900
    CK08J010  C2008 06 16.73880 21 48 49.31 +49 38 21.7                 EM027900
    CK08J010  C2008 06 18.99346 21 50 39.64 +51 40 56.0          14.4 N EM027J38
    CK08J010  C2008 06 18.99419 21 50 39.67 +51 40 58.4          14.4 N EM027J38
    CK08J010  C2008 06 18.99493 21 50 39.71 +51 41 00.8          14.4 N EM027J38
    CK08J010  C2008 06 19.01809 21 50 40.74 +51 42 16.0          14.4 N EM027945
    CK08J010  C2008 06 19.02265 21 50 40.95 +51 42 31.4          14.3 N EM027945
    CK08J010  C2008 06 19.02550 21 50 41.08 +51 42 39.8          14.4 N EM027945
    CK08J010  C2008 06 19.02684 21 50 41.14 +51 42 44.5          14.3 N EM027945
    CK08J010  C2008 06 19.02784 21 50 41.18 +51 42 47.7          14.4 N EM027945
    CK08J010  C2008 06 19.92617 21 51 23.96 +52 31 08.5          14.5 N EM027939
    CK08J010  C2008 06 19.92744 21 51 24.03 +52 31 12.9          14.5 N EM027939
    CK08J010  C2008 06 19.92872 21 51 24.10 +52 31 17.2          14.6 N EM027939
    CK08J010  C2008 06 19.93441 21 51 24.50 +52 31 34.5          13.2 T EM027A97
    CK08J010  C2008 06 19.93909 21 51 24.46 +52 31 50.3          13.8 T EM027A97
    CK08J010  C2008 06 19.94376 21 51 24.70 +52 32 05.7          14.4 T EM027A97
    CK08J010  C2008 06 19.94842 21 51 24.96 +52 32 21.6          13.2 T EM027A97
    CK08J010  C2008 06 19.95309 21 51 25.16 +52 32 35.7          13.9 T EM027A97
    CK08J010  C2008 06 19.95624 21 51 25.37 +52 32 46.6          14.6 N EM027213
    CK08J010  C2008 06 19.95721 21 51 25.42 +52 32 49.6          14.6 N EM027213
    CK08J010  C2008 06 19.95776 21 51 25.27 +52 32 51.0          14.0 T EM027A97
    CK08J010  C2008 06 19.95868 21 51 25.45 +52 32 54.6          14.6 N EM027213
    CK08J010  C2008 06 20.05224 21 51 29.90 +52 37 57.7          14.7 N EM027J51
    CK08J010  C2008 06 20.05893 21 51 30.19 +52 38 19.3          14.7 N EM027J51
    CK08J010  C2008 06 20.06523 21 51 30.47 +52 38 39.9          14.8 N EM027J51
    CK08J010  C2008 06 20.07316 21 51 30.60 +52 39 06.1          15.8 N EM027B37
    CK08J010  C2008 06 20.07860 21 51 30.88 +52 39 23.5          15.9 N EM027B37
    CK08J010  C2008 06 20.08170 21 51 30.98 +52 39 33.6          15.9 N EM027B37
    CK08J010  C2008 06 20.08484 21 51 31.11 +52 39 43.5          15.9 N EM027B37
    CK08J010  C2008 06 21.07419 21 52 17.19 +53 32 37.0          14.4 N EM027232
    CK08J010  C2008 06 21.07613 21 52 17.26 +53 32 43.2          14.4 N EM027232
    CK08J010  C2008 06 21.07808 21 52 17.38 +53 32 49.5          14.4 N EM027232
    CK08J010  C2008 06 21.12712 21 52 19.46 +53 35 27.3          15.1 N EM027B37
    CK08J010  C2008 06 21.13236 21 52 19.69 +53 35 44.2          15.0 N EM027B37
    CK08J010  C2008 06 21.13425 21 52 19.78 +53 35 49.9          15.0 N EM027B37
    CK08J010  C2008 06 21.93640 21 52 56.73 +54 18 23.0          14.5 N EM027213
    CK08J010  C2008 06 21.94189 21 52 56.94 +54 18 40.6          14.6 N EM027213
    CK08J010  C2008 06 21.94337 21 52 57.03 +54 18 45.4          14.5 N EM027213
    CK08J010  C2008 06 21.99035 21 52 59.16 +54 21 15.3          14.4 N EM027939
    CK08J010  C2008 06 21.99078 21 52 58.97 +54 21 17.3          15.3 N EM027629
    CK08J010  C2008 06 21.99288 21 52 59.27 +54 21 23.4          14.4 N EM027939
    CK08J010  C2008 06 21.99372 21 52 59.11 +54 21 26.9          15.3 N EM027629
    CK08J010  C2008 06 21.99663 21 52 59.21 +54 21 36.1          15.3 N EM027629
    CK08J010  C2008 06 21.99956 21 52 59.33 +54 21 45.5          15.3 N EM027629
    CK08J010  C2008 06 22.00959 21 52 59.99 +54 22 17.0          14.4 N EM027939
    CK08J010  C2008 06 22.02568 21 53 00.81 +54 23 08.3          14.9 N EM027J51
    CK08J010  C2008 06 22.02964 21 53 00.96 +54 23 21.1          14.9 N EM027J51
    CK08J010  C2008 06 22.03359 21 53 00.99 +54 23 33.5          14.8 N EM027J51
    CK08J010  C2008 06 22.06230 21 53 02.36 +54 25 02.3          14.4 N EM027J45
    CK08J010  C2008 06 22.06529 21 53 02.37 +54 25 15.0          14.3 N EM027J53
    CK08J010  C2008 06 22.06617 21 53 02.40 +54 25 17.8          14.4 N EM027J53
    CK08J010  C2008 06 22.07161 21 53 02.66 +54 25 35.2          14.4 N EM027J53
    CK08J010  C2008 06 22.08112 21 53 03.15 +54 26 02.7          14.4 N EM027J45
    CK08J010  C2008 06 22.92521 21 53 40.97 +55 10 33.0          14.4 N EM027B20
    CK08J010  C2008 06 22.92973 21 53 41.17 +55 10 46.9          14.3 N EM027B20
    CK08J010  C2008 06 22.93311 21 53 41.30 +55 10 57.9          14.4 N EM027B20
    CK08J010  C2008 06 22.97723 21 53 43.25 +55 13 17.7          14.5 N EM027939
    CK08J010  C2008 06 22.98188 21 53 43.45 +55 13 32.4          14.5 N EM027939
    CK08J010  C2008 06 22.98650 21 53 43.66 +55 13 47.1          14.5 N EM027939
    CK08J010  C2008 06 23.00098 21 53 44.35 +55 14 33.4          15.4 N EM027J47
    CK08J010  C2008 06 23.00691 21 53 44.61 +55 14 52.2          15.3 N EM027J47
    CK08J010  C2008 06 23.01114 21 53 44.83 +55 15 05.8          15.5 N EM027J47
    CK08J010  C2008 06 23.12132 21 53 49.21 +55 20 54.4          15.1 N EM027B37
    CK08J010  C2008 06 23.12368 21 53 49.32 +55 21 01.7          15.0 N EM027B37
    CK08J010  C2008 06 23.12579 21 53 49.40 +55 21 08.4          15.0 N EM027B37
    CK08J010  C2008 06 23.12875 21 53 49.53 +55 21 19.0          15.2 N EM027B37
    CK08J010  C2008 06 24.61432 21 54 54.17 +56 38 44.2                 EM027900
    CK08J010  C2008 06 24.61568 21 54 54.23 +56 38 48.5          15.0 N EM027900

Observer details:
213 Observatorio Montcabre.  Observer R. Naves.  Measurer M. Campas.  0.30-m
    f/5 Schmidt-Cassegrain + CCD.
232 Masquefa Observatory.  Observer E. Reina.  0.25-m f/3.3 Schmidt-Cassegrain
    + CCD.
349 Ageo.  Observer K. Kadota.  0.25-m f/5.0 reflector + CCD.
629 JATE Observatory, Szeged.  Observers B. Csak, G. Santa, M. Jurkovic.
    Measurer B. Csak.  0.40-m f/3.0 reflector + CCD.
900 Moriyama.  Observer Y. Ikari.  0.25-m f/6.3 Schmidt-Cassegrain + CCD.
939 Observatorio Rodeno.  Observer J. Castellano.  0.20-m f/10
    Schmidt-Cassegrain + CCD.
945 Observatorio Monte Deva.  Observer J. R. Vidal.  0.36-m f/4.48
    Schmidt-Cassegrain + CCD.
A97 Stammersdorf.  Observer W. Vollmann.  0.13-m f/4 refractor + CCD.
B20 Observatorio Carmelita, Tiana.  Observer J. M. Aymami.  0.25-m f/4.3
    Schmidt-Cassegrain + CCD.
B37 Obs. de L' Ametlla del Valles, Barcelona.  Observer A. Garrigos S.
    0.51-m f/4 Newtonian reflector + CCD.
D81 Nagano.  Observer Y. Ohshima.  0.3-m f/4.5 reflector + CCD.
J24 Observatorio Altamira.  Observer J. F. Hernandez.  0.4-m f/10
    Schmidt-Cassegrain + CCD.
J38 Observatorio La Vara, Valdes.  Observer F. Garcia.  0.25-m f/8.1 reflector
    + CCD.
J45 Observatorio Montana Cabreja, Vega de San Mateo.  Observer F. A. Rodriguez
    R.  0.20-m f/4 reflector.
J47 Observatorio Nazaret.  Observer G. Muler.  0.30-m Schmidt-Cassegrain + CCD.
J51 Observatorio Atlante, Tenerife.  Observer J. A. Henriquez.  0.2-m f/9
    Cassegrain + CCD.
J53 Posadas.  Observer R. Benavides.  0.28-m f/6.3 Schmidt-Cassegrain + CCD.
J70 Obs. Astronomico Vega del Thader, El Palmar.  Observer J. Pablo Navarro P.
    0.25-m Schmidt-Cassegrain + CCD.

Orbital elements:
    C/2008 J1 (Boattini)
T 2008 July 13.2631 TT                                  MPC
q   1.724252             (2000.0)            P               Q
z  +0.006081       Peri.   68.1234      +0.4602561      +0.1205486
                   Node   273.4185      -0.6425017      +0.7289396
e   0.989514       Incl.   61.7792      +0.6126629      +0.6738806
From 480 observations 2008 May 2-June 24.

Brian G. Marsden             (C) Copyright 2008 MPC           M.P.E.C. 2008-M27

Read MPEC 2008-M26 Read MPEC 2008-M28


Our Web policy. Index to the CBAT/MPC/ICQ pages.


Valid HTML 4.01!